Volver al catálogo

KUIPER-00154

ActivoComunicacionesLEO
NORAD 65969·PAYLOAD·🇺🇸 United States

Lanzado Oct 14, 2025 desde Cape Canaveral Space Force Station

Loading…

Próximos Pases (próximas 24 horas)

TLE

ActualizadoSource: CelesTrak SupGP

Época: Sep 14, 2026, 23:33 UTC

1 65969C 25228Y   26257.98178241 -.00001097  00000+0 -14365-3 0  2573
2 65969  51.8988 218.5527 0000862  73.5594 144.3589 14.79924467    13

Sigue KUIPER-00154 en tiempo real con AllMySat

Download on the App Store